Regional Weather Roundup
Issued by NWS

Home | Current Version | Previous Version | Graphics & Text | Print | Product List | Glossary On
Versions: 1 2 3 4 5 6 7 8 9 10 11 12 13 14 15 16 17 18 19 20 21 22 23 24 25 26 27 28 29 30 31 32 33 34 35 36 37 38 39 40 41 42 43 44 45 46 47 48 49 50
000
ASUS43 KIND 291309
RWRIN

WEATHER ROUNDUP FOR INDIANA
NATIONAL WEATHER SERVICE INDIANAPOLIS IN
900 AM EDT WED JUL 29 2015

NOTE: "FAIR" INDICATES FEW OR NO CLOUDS BELOW 12,000 FEET WITH NO
SIGNIFICANT WEATHER AND/OR OBSTRUCTIONS TO VISIBILITY.

* - STATION DOES NOT REPORT WEATHER SUCH AS PRECIPITATION OR FOG.

+ - STATION NOT QUALITY CONTROLLED BY THE NATIONAL WEATHER SERVICE.
    USE DATA WITH CAUTION...ESPECIALLY DEWPOINT AND RELATIVE
    HUMIDITY OBSERVATIONS.

INZ001>003-010>013-019-020-291400-
NORTHWEST INDIANA

CITY           SKY/WX    TMP DP  RH WIND       PRES   REMARKS
GARY /AIRPORT/ CLOUDY    77  75  94 VRB5      29.96R
KNOX *+        CLOUDY    77  73  88 W5        29.96R
LA PORTE +     CLOUDY    78  78 100 W3        29.97R
MICHIGAN CITY+ CLOUDY    77  73  88 W3        29.96S
MONTICELLO +   CLOUDY    75  74  97 CALM      29.96F
RENSSELAER +   CLOUDY    73  73 100 CALM      29.97R
VALPARAISO     CLOUDY    78  73  84 W9        29.97R

$$

LMZ046-743>745-291400-
SOUTHERN LAKE MICHIGAN

STATION/POSITION TIME  TEMP    WIND        PRES    WAVE
                       AIR SEA DIR/SP/G            HT
                 (UTC) (F)     (DEG/KT/KT) (MB)    (FT)
BURNS HARBOR     1200   75     230/  8/  8 1014.6R
MICHIGAN CITY    1200   74     200/  4/  6   N/A
5NW MICH CITY    1300   75 74  260/  8/ 10   N/A     1

$$

INZ004-005-014>016-021>024-291400-
NORTH CENTRAL INDIANA

CITY           SKY/WX    TMP DP  RH WIND       PRES   REMARKS
ELKHART        MOSUNNY   77  73  88 W3        29.97R
GOSHEN         PTSUNNY   79  73  82 SW5       29.96S
LOGANSPORT +   CLOUDY    75  70  83 CALM      29.97F
PERU/GRISSOM   PTSUNNY   77  74  91 W6        29.97R
ROCHESTER +    PTSUNNY   81  77  89 W3        29.97S
SOUTH BEND     CLOUDY    78  73  84 SW5       29.96S
WARSAW +       PTSUNNY   79  73  83 W3        29.97S

$$

INZ006>009-017-018-025>027-291400-
NORTHEAST INDIANA

CITY           SKY/WX    TMP DP  RH WIND       PRES   REMARKS
ANGOLA *+      PTSUNNY   79  72  78 SW3       29.98R
AUBURN +       MOSUNNY   77  70  78 CALM      29.99R
FORT WAYNE     PTSUNNY   78  73  84 SW3       29.98R
HUNTINGTON +   PTSUNNY   78  74  90 CALM      29.97S

$$

INZ028-029-035-036-043>045-051>053-291400-
WEST CENTRAL INDIANA

CITY           SKY/WX    TMP DP  RH WIND       PRES   REMARKS
CRAWFORDSVL +  CLOUDY    73  72  94 CALM        N/A
GREENCASTLE +  CLOUDY    75  70  83 CALM      30.01R
LAFAYETTE      CLOUDY    75  71  87 CALM      29.97R
TERRE HAUTE    CLOUDY    76  73  91 S5        29.99R

$$

INZ030>032-037>040-046>048-054>057-064-065-291400-
CENTRAL INDIANA

CITY           SKY/WX    TMP DP  RH WIND       PRES   REMARKS
ANDERSON       MOSUNNY   77  73  88 CALM      30.00  FOG
COLUMBUS       PTSUNNY   77  73  88 CALM      29.99
FRANKFORT +    CLOUDY    79  78  98 W6        30.01S
GREENWOOD *+   MOSUNNY   79  72  78 W9        30.01R
INDIANAPOLIS   PTSUNNY   81  72  74 W5        29.98R
-EAGLE CREEK   PTSUNNY   79  73  82 NW7       29.99R
KOKOMO *+      PTSUNNY   77  72  83 W8        29.99R
MARION +       PTSUNNY   77  74  90 W7        29.99R
MT COMFORT *+  MOSUNNY   77 N/A N/A CALM      30.00R
SHELBYVILLE    MOSUNNY   78  74  87 S5        29.98R
ZIONSVILLE +   PTSUNNY   78  73  82 CALM      30.00S

$$

INZ033-034-041-042-049-050-058-059-291400-
EAST CENTRAL INDIANA

CITY           SKY/WX    TMP DP  RH WIND       PRES   REMARKS
MUNCIE         PTSUNNY   80  73  79 SW6       29.99R

$$

INZ060-061-067>069-081>083-085>088-291400-
SOUTHWEST INDIANA

CITY           SKY/WX    TMP DP  RH WIND       PRES   REMARKS
EVANSVILLE     PTSUNNY   76  72  87 VRB5      30.01R THUNDER
HUNTINGBURG *+ MOSUNNY   77  72  83 W6        30.01F
WASHINGTON +   CLOUDY    76  72  87 CALM      30.01R FOG

$$

INZ062-063-066-070>080-084-089>092-291400-
SOUTH CENTRAL AND SOUTHEAST INDIANA

CITY           SKY/WX    TMP DP  RH WIND       PRES   REMARKS
BLOOMINGTON    LGT RAIN  77  74  90 W3        30.00R
MADISON *+     SUNNY     79  75  89 CALM      30.03R
NORTH VERNON + CLOUDY    79  79 100 CALM      30.00S FOG
SEYMOUR +      MOSUNNY   81  77  89 CALM      29.99S

$$



USA.gov is the U.S. government's official web portal to all federal, state and local government web resources and services.